Hourly Data Report for December 14, 2003

SHERBROOKE A
QUEBEC

45°26'00.000" N
71°41'00.000" W
241.40 m
7028124
71610
YSC

Download Data

Hourly Data (December 2003)
Hourly Data Report for December 14, 2003
TIME
LST
Temp Definition
°C
Dew Point Definition
°C
Rel Hum Definition
%
Precip. Amount Definition
mm

Wind Dir Definition
10's deg

Wind Spd Definition
km/h
Visibility Definition
km
Stn Press Definition
kPa
Hmdx Definition


Wind Chill Definition


Weather Definition


00:00 -22.6 -26.6 70   9 4 15.0 100.29   -26  
01:00 -22.7 -26.7 70   9 7 15.0 100.25   -29  
02:00 -22.8 -26.8 70   7 4 15.0 100.35   -27  
03:00 -22.5 -26.5 70   10 4 15.0 100.35   -26  
04:00 -23.0 -26.9 70   9 4 15.0 100.30   -27  
05:00 -22.2 -26.2 70   9 9 15.0 100.25   -29  
06:00 -22.0 -26.1 69   10 7 15.0 100.18   -28  
07:00 -22.4 -26.5 69   4 7 15.0 100.14   -28  
08:00 -21.7 -25.6 71   9 4 24.1 100.14   -25 Mainly Clear
09:00 -19.8 -23.2 74   4 6 24.1 100.16   -25 Mainly Clear
10:00 -18.8 -22.7 71   8 7 24.1 100.11   -24 Mostly Cloudy
11:00 -16.7 -21.9 64   6 7 24.1 100.02   -22 Mostly Cloudy
12:00 -14.8 -21.4 57   7 9 24.1 99.89   -21 Mostly Cloudy
13:00 -13.8 -19.2 64   9 7 24.1 99.81   -18 Mostly Cloudy
14:00 -12.8 -18.2 64   8 7 24.1 99.69   -17 Cloudy
15:00 -12.2 -17.4 65   8 7 24.1 99.61   -17 Cloudy
16:00 -11.8 -16.3 69   7 6 24.1 99.60   -16 Cloudy
17:00 -11.2 -14.7 75   10 6 24.1 99.48   -15 Cloudy
18:00 -10.6 -13.5 79   8 9 15.0 99.36   -16  
19:00 -10.2 -12.1 86   8 4 1.6 99.28   -13 Snow
20:00 -9.4 -10.8 90   6 6 0.8 99.13   -13 Snow
21:00 -8.5 -9.8 90   7 7 0.3 99.03   -12 Snow
22:00 -7.9 -9.1 91   6 7 0.3 98.87   -12 Snow
23:00 -6.9 -8.2 90   9 15 0.3 98.76   -13 Snow

Notes on Data Quality.

Legend

  • E = Estimated
  • M = Missing
  • NA = Not Available*
  • [empty] = Indicates an unobserved value
Date modified: